THY3ML EGKK-LTFM

Flight info

Callsign THY3ML
Flight time N/A
Altitude 37000
Route MIMFO Y312 DVR L9 KONAN/N0483F410 UL607 KOK DCT REMBA DCT MATUG DCT BOMBI DCT TENLO DCT LAMSI DCT ARSIN DCT GITAS DCT MAVIR DCT GOVIN DCT PADGU DCT TIMUR L606 GASRU DCT RILEX
Aircraft A359/H-SDE2E3GHIJ3J4J5LM1ORWXY/LB1D1

Departure

Time 2026-04-14 16:26
Airport London Gatwick Airport (EGKK)

Arrival

Time N/A
Airport İstanbul Airport (LTFM)
Time Latitude Longitude Altitude Speed Heading
2026-04-14 15:40 51.15591 -0.16904 218 ft 0 kts 167°
2026-04-14 15:59 51.15607 -0.16910 220 ft 3 kts 167°
2026-04-14 16:00 51.15628 -0.16918 215 ft 3 kts 172°
2026-04-14 16:00 51.15649 -0.16919 219 ft 3 kts 202°
2026-04-14 16:00 51.15662 -0.16902 214 ft 3 kts 256°
2026-04-14 16:00 51.15665 -0.16883 221 ft 0 kts 257°
2026-04-14 16:03 51.15660 -0.16919 219 ft 11 kts 258°
2026-04-14 16:03 51.15638 -0.17075 212 ft 16 kts 257°
2026-04-14 16:04 51.15611 -0.17254 215 ft 14 kts 252°
2026-04-14 16:04 51.15567 -0.17314 220 ft 7 kts 188°
2026-04-14 16:04 51.15545 -0.17309 210 ft 0 kts 170°
2026-04-14 16:07 51.15535 -0.17307 210 ft 4 kts 170°
2026-04-14 16:07 51.15494 -0.17293 215 ft 8 kts 168°
2026-04-14 16:08 51.15427 -0.17270 213 ft 10 kts 167°
2026-04-14 16:08 51.15417 -0.17267 218 ft 3 kts 167°
2026-04-14 16:08 51.15380 -0.17254 215 ft 5 kts 168°
2026-04-14 16:08 51.15369 -0.17250 217 ft 2 kts 168°
2026-04-14 16:09 51.15351 -0.17244 216 ft 0 kts 168°
2026-04-14 16:12 51.15306 -0.17225 216 ft 10 kts 159°
2026-04-14 16:12 51.15298 -0.17221 218 ft 0 kts 160°
2026-04-14 16:13 51.15293 -0.17218 218 ft 1 kts 160°
2026-04-14 16:13 51.15259 -0.17186 220 ft 13 kts 149°
2026-04-14 16:13 51.15203 -0.17103 212 ft 4 kts 106°
2026-04-14 16:13 51.15203 -0.17056 218 ft 0 kts 82°
2026-04-14 16:16 51.15205 -0.17033 215 ft 5 kts 82°
2026-04-14 16:16 51.15208 -0.17007 213 ft 0 kts 79°
2026-04-14 16:17 51.15208 -0.17006 213 ft 0 kts 79°
2026-04-14 16:18 51.15209 -0.16998 212 ft 2 kts 79°
2026-04-14 16:18 51.15210 -0.16996 212 ft 0 kts 79°
2026-04-14 16:19 51.15211 -0.16984 213 ft 3 kts 79°
2026-04-14 16:19 51.15215 -0.16950 215 ft 0 kts 79°
2026-04-14 16:21 51.15215 -0.16949 215 ft 0 kts 79°
2026-04-14 16:22 51.15221 -0.16903 217 ft 0 kts 79°
2026-04-14 16:22 51.15221 -0.16898 216 ft 0 kts 79°
2026-04-14 16:23 51.15222 -0.16898 210 ft 0 kts 79°
2026-04-14 16:23 51.15223 -0.16884 210 ft 0 kts 79°
2026-04-14 16:24 51.15224 -0.16879 210 ft 1 kts 81°
2026-04-14 16:24 51.15222 -0.16855 217 ft 7 kts 97°
2026-04-14 16:24 51.15151 -0.16792 212 ft 13 kts 200°
2026-04-14 16:24 51.15109 -0.16905 215 ft 9 kts 257°
2026-04-14 16:25 51.15108 -0.16912 214 ft 0 kts 257°
2026-04-14 16:25 51.15103 -0.16946 214 ft 22 kts 257°
2026-04-14 16:25 51.15001 -0.17671 220 ft 109 kts 257°
2026-04-14 16:26 51.14789 -0.19232 314 ft 168 kts 254°
2026-04-14 16:26 51.14528 -0.21071 1253 ft 171 kts 251°
2026-04-14 16:26 51.14248 -0.22958 2055 ft 183 kts 250°
2026-04-14 16:26 51.13966 -0.25045 2562 ft 201 kts 252°
2026-04-14 16:27 51.13741 -0.27290 3299 ft 211 kts 261°
2026-04-14 16:27 51.13998 -0.29651 4009 ft 227 kts 289°
2026-04-14 16:27 51.15043 -0.31595 4777 ft 241 kts 323°
2026-04-14 16:27 51.16671 -0.32340 5559 ft 252 kts 359°
2026-04-14 16:28 51.18331 -0.31467 6350 ft 258 kts 36°
2026-04-14 16:28 51.19404 -0.29217 7053 ft 257 kts 74°
2026-04-14 16:28 51.19797 -0.26465 7869 ft 254 kts 85°
2026-04-14 16:28 51.20062 -0.23664 8653 ft 257 kts 85°
2026-04-14 16:29 51.20333 -0.20838 9457 ft 259 kts 84°
2026-04-14 16:29 51.20653 -0.17930 9983 ft 276 kts 82°
2026-04-14 16:29 51.21045 -0.14824 10341 ft 295 kts 81°
2026-04-14 16:29 51.21482 -0.11524 10669 ft 314 kts 80°
2026-04-14 16:30 51.21945 -0.08014 10989 ft 333 kts 80°
2026-04-14 16:30 51.22431 -0.04313 11292 ft 350 kts 79°
2026-04-14 16:30 51.22932 -0.00486 11636 ft 363 kts 79°
2026-04-14 16:30 51.23458 0.03553 12043 ft 370 kts 79°
2026-04-14 16:31 51.23975 0.07536 12655 ft 374 kts 78°
2026-04-14 16:31 51.24504 0.11623 13159 ft 379 kts 78°
2026-04-14 16:31 51.25038 0.15771 13740 ft 383 kts 78°
2026-04-14 16:31 51.25394 0.19990 14214 ft 387 kts 89°
2026-04-14 16:32 51.25220 0.24291 14743 ft 389 kts 97°
2026-04-14 16:32 51.24894 0.28579 15295 ft 390 kts 98°
2026-04-14 16:32 51.24552 0.32904 15799 ft 394 kts 98°
2026-04-14 16:32 51.24211 0.37257 16338 ft 397 kts 98°
2026-04-14 16:33 51.23871 0.41632 16942 ft 397 kts 98°
2026-04-14 16:33 51.23532 0.46022 17473 ft 401 kts 98°
2026-04-14 16:33 51.23188 0.50468 17816 ft 405 kts 98°
2026-04-14 16:33 51.22845 0.54917 17914 ft 403 kts 97°
2026-04-14 16:34 51.22500 0.59354 17934 ft 403 kts 98°
2026-04-14 16:34 51.22152 0.63796 18000 ft 405 kts 98°
2026-04-14 16:34 51.21799 0.68278 18513 ft 407 kts 97°
2026-04-14 16:34 51.21444 0.72768 18980 ft 410 kts 97°
2026-04-14 16:35 51.21081 0.77333 19411 ft 413 kts 97°
2026-04-14 16:35 51.20719 0.81860 19874 ft 416 kts 97°
2026-04-14 16:35 51.20350 0.86451 20325 ft 419 kts 97°
2026-04-14 16:35 51.19977 0.91084 20754 ft 423 kts 97°
2026-04-14 16:36 51.19600 0.95747 21211 ft 426 kts 96°
2026-04-14 16:36 51.19216 1.00462 21555 ft 431 kts 96°
2026-04-14 16:36 51.18827 1.05230 21958 ft 435 kts 96°
2026-04-14 16:36 51.18434 1.10019 22347 ft 438 kts 95°
2026-04-14 16:37 51.18034 1.14852 22731 ft 441 kts 95°
2026-04-14 16:37 51.17630 1.19719 23102 ft 445 kts 95°
2026-04-14 16:37 51.17220 1.24621 23476 ft 448 kts 95°
2026-04-14 16:37 51.16804 1.29565 23832 ft 452 kts 95°
2026-04-14 16:38 51.16385 1.34540 24169 ft 454 kts 95°
2026-04-14 16:38 51.15983 1.39543 24529 ft 456 kts 93°
2026-04-14 16:38 51.15698 1.44573 24928 ft 456 kts 91°
2026-04-14 16:38 51.15548 1.47973 25233 ft 455 kts 90°
2026-04-14 16:39 51.15284 1.54662 25704 ft 459 kts 90°
2026-04-14 16:39 51.15079 1.59744 26062 ft 462 kts 90°
2026-04-14 16:39 51.14931 1.63200 26315 ft 464 kts 90°
2026-04-14 16:39 51.14698 1.68337 26702 ft 466 kts 90°
2026-04-14 16:40 51.14449 1.73508 27113 ft 469 kts 90°
2026-04-14 16:40 51.14190 1.78701 27514 ft 472 kts 90°
2026-04-14 16:40 51.13924 1.83933 27939 ft 476 kts 90°
2026-04-14 16:40 51.13652 1.89194 28371 ft 479 kts 90°